Year,Month,Day,Hour,Minute,Value (Times are PST for temperature in C)
2012,05,18,00,00,10.50
2012,05,18,00,01,10.40
2012,05,18,00,02,10.40
2012,05,18,00,03,10.40
2012,05,18,00,04,10.40
2012,05,18,00,05,10.40
2012,05,18,00,06,10.40
2012,05,18,00,07,10.40
2012,05,18,00,08,10.40
2012,05,18,00,09,10.40
2012,05,18,00,10,10.40
2012,05,18,00,11,10.40
2012,05,18,00,12,10.40
2012,05,18,00,13,10.40
2012,05,18,00,14,10.40
2012,05,18,00,15,10.40
2012,05,18,00,16,10.40
2012,05,18,00,17,10.40
2012,05,18,00,18,10.40
2012,05,18,00,19,10.30
2012,05,18,00,20,10.30
2012,05,18,00,21,10.30
2012,05,18,00,22,10.30
2012,05,18,00,23,10.30
2012,05,18,00,24,10.30
2012,05,18,00,25,10.30
2012,05,18,00,26,10.20
2012,05,18,00,27,10.20
2012,05,18,00,28,10.20
2012,05,18,00,29,10.20
2012,05,18,00,30,10.20
2012,05,18,00,31,10.20
2012,05,18,00,32,10.20
2012,05,18,00,33,10.20
2012,05,18,00,34,10.20
2012,05,18,00,35,10.20
2012,05,18,00,36,10.20
2012,05,18,00,37,10.10
2012,05,18,00,38,10.10
2012,05,18,00,39,10.10
2012,05,18,00,40,10.10
2012,05,18,00,41,10.10
2012,05,18,00,42,10.00
2012,05,18,00,43,10.00
2012,05,18,00,44,10.00
2012,05,18,00,45,10.00
2012,05,18,00,46,10.00
2012,05,18,00,47,10.00
2012,05,18,00,48,10.00
2012,05,18,00,49,10.00
2012,05,18,00,50,10.00
2012,05,18,00,51,10.10
2012,05,18,00,52,10.10
2012,05,18,00,53,10.10
2012,05,18,00,54,10.10
2012,05,18,00,55,10.20
2012,05,18,00,56,10.20
2012,05,18,00,57,10.20
2012,05,18,00,58,10.20
2012,05,18,00,59,10.20
2012,05,18,01,00,10.20
2012,05,18,01,01,10.20
2012,05,18,01,02,10.20
2012,05,18,01,03,10.20
2012,05,18,01,04,10.10
2012,05,18,01,05,10.10
2012,05,18,01,06,10.10
2012,05,18,01,07,10.10
2012,05,18,01,08,10.00
2012,05,18,01,09,10.00
2012,05,18,01,10,9.90
2012,05,18,01,11,9.90
2012,05,18,01,12,9.90
2012,05,18,01,13,9.90
2012,05,18,01,14,9.90
2012,05,18,01,15,9.80
2012,05,18,01,16,9.80
2012,05,18,01,17,9.80
2012,05,18,01,18,9.80
2012,05,18,01,19,9.80
2012,05,18,01,20,9.80
2012,05,18,01,21,9.80
2012,05,18,01,22,9.80
2012,05,18,01,23,9.80
2012,05,18,01,24,9.70
2012,05,18,01,25,9.70
2012,05,18,01,26,9.70
2012,05,18,01,27,9.80
2012,05,18,01,28,9.80
2012,05,18,01,29,9.80
2012,05,18,01,30,9.80
2012,05,18,01,31,9.80
2012,05,18,01,32,9.70
2012,05,18,01,33,9.70
2012,05,18,01,34,9.70
2012,05,18,01,35,9.70
2012,05,18,01,36,9.70
2012,05,18,01,37,9.70
2012,05,18,01,38,9.70
2012,05,18,01,39,9.60
2012,05,18,01,40,9.60
2012,05,18,01,41,9.60
2012,05,18,01,42,9.50
2012,05,18,01,43,9.50
2012,05,18,01,44,9.50
2012,05,18,01,45,9.40
2012,05,18,01,46,9.40
2012,05,18,01,47,9.40
2012,05,18,01,48,9.40
2012,05,18,01,49,9.40
2012,05,18,01,50,9.30
2012,05,18,01,51,9.30
2012,05,18,01,52,9.30
2012,05,18,01,53,9.30
2012,05,18,01,54,9.30
2012,05,18,01,55,9.20
2012,05,18,01,56,9.20
2012,05,18,01,57,9.20
2012,05,18,01,58,9.20
2012,05,18,01,59,9.20
2012,05,18,02,00,9.20
2012,05,18,02,01,9.30
2012,05,18,02,02,9.30
2012,05,18,02,03,9.20
2012,05,18,02,04,9.20
2012,05,18,02,05,9.20
2012,05,18,02,06,9.20
2012,05,18,02,07,9.20
2012,05,18,02,08,9.20
2012,05,18,02,09,9.20
2012,05,18,02,10,9.20
2012,05,18,02,11,9.20
2012,05,18,02,12,9.20
2012,05,18,02,13,9.10
2012,05,18,02,14,9.10
2012,05,18,02,15,9.10
2012,05,18,02,16,9.10
2012,05,18,02,17,9.10
2012,05,18,02,18,9.10
2012,05,18,02,19,9.10
2012,05,18,02,20,9.00
2012,05,18,02,21,9.00
2012,05,18,02,22,9.00
2012,05,18,02,23,9.00
2012,05,18,02,24,9.00
2012,05,18,02,25,8.90
2012,05,18,02,26,8.90
2012,05,18,02,27,8.90
2012,05,18,02,28,8.90
2012,05,18,02,29,8.90
2012,05,18,02,30,8.90
2012,05,18,02,31,8.90
2012,05,18,02,32,8.80
2012,05,18,02,33,8.80
2012,05,18,02,34,8.80
2012,05,18,02,35,8.80
2012,05,18,02,36,8.80
2012,05,18,02,37,8.80
2012,05,18,02,38,8.80
2012,05,18,02,39,8.80
2012,05,18,02,40,8.80
2012,05,18,02,41,8.80
2012,05,18,02,42,8.80
2012,05,18,02,43,8.70
2012,05,18,02,44,8.70
2012,05,18,02,45,8.70
2012,05,18,02,46,8.70
2012,05,18,02,47,8.70
2012,05,18,02,48,8.70
2012,05,18,02,49,8.70
2012,05,18,02,50,8.70
2012,05,18,02,51,8.70
2012,05,18,02,52,8.70
2012,05,18,02,53,8.70
2012,05,18,02,54,8.70
2012,05,18,02,55,8.70
2012,05,18,02,56,8.70
2012,05,18,02,57,8.70
2012,05,18,02,58,8.70
2012,05,18,02,59,8.70
2012,05,18,03,00,8.70
2012,05,18,03,01,8.70
2012,05,18,03,02,8.70
2012,05,18,03,03,8.70
2012,05,18,03,04,8.70
2012,05,18,03,05,8.60
2012,05,18,03,06,8.60
2012,05,18,03,07,8.60
2012,05,18,03,08,8.60
2012,05,18,03,09,8.60
2012,05,18,03,10,8.50
2012,05,18,03,11,8.50
2012,05,18,03,12,8.50
2012,05,18,03,13,8.50
2012,05,18,03,14,8.50
2012,05,18,03,15,8.40
2012,05,18,03,16,8.40
2012,05,18,03,17,8.40
2012,05,18,03,18,8.40
2012,05,18,03,19,8.40
2012,05,18,03,20,8.40
2012,05,18,03,21,8.40
2012,05,18,03,22,8.50
2012,05,18,03,23,8.50
2012,05,18,03,24,8.50
2012,05,18,03,25,8.50
2012,05,18,03,26,8.50
2012,05,18,03,27,8.50
2012,05,18,03,28,8.50
2012,05,18,03,29,8.50
2012,05,18,03,30,8.50
2012,05,18,03,31,8.50
2012,05,18,03,32,8.50
2012,05,18,03,33,8.50
2012,05,18,03,34,8.50
2012,05,18,03,35,8.50
2012,05,18,03,36,8.50
2012,05,18,03,37,8.50
2012,05,18,03,38,8.50
2012,05,18,03,39,8.50
2012,05,18,03,40,8.50
2012,05,18,03,41,8.50
2012,05,18,03,42,8.50
2012,05,18,03,43,8.60
2012,05,18,03,44,8.60
2012,05,18,03,45,8.60
2012,05,18,03,46,8.60
2012,05,18,03,47,8.60
2012,05,18,03,48,8.60
2012,05,18,03,49,8.60
2012,05,18,03,50,8.60
2012,05,18,03,51,8.60
2012,05,18,03,52,8.60
2012,05,18,03,53,8.60
2012,05,18,03,54,8.60
2012,05,18,03,55,8.70
2012,05,18,03,56,8.70
2012,05,18,03,57,8.70
2012,05,18,03,58,8.70
2012,05,18,03,59,8.70
2012,05,18,04,00,8.70
2012,05,18,04,01,8.70
2012,05,18,04,02,8.70
2012,05,18,04,03,8.60
2012,05,18,04,04,8.60
2012,05,18,04,05,8.60
2012,05,18,04,06,8.60
2012,05,18,04,07,8.60
2012,05,18,04,08,8.60
2012,05,18,04,09,8.50
2012,05,18,04,10,8.50
2012,05,18,04,11,8.50
2012,05,18,04,12,8.50
2012,05,18,04,13,8.50
2012,05,18,04,14,8.40
2012,05,18,04,15,8.40
2012,05,18,04,16,8.40
2012,05,18,04,17,8.40
2012,05,18,04,18,8.40
2012,05,18,04,19,8.40
2012,05,18,04,20,8.30
2012,05,18,04,21,8.30
2012,05,18,04,22,8.30
2012,05,18,04,23,8.30
2012,05,18,04,24,8.30
2012,05,18,04,25,8.30
2012,05,18,04,26,8.30
2012,05,18,04,27,8.30
2012,05,18,04,28,8.30
2012,05,18,04,29,8.30
2012,05,18,04,30,8.30
2012,05,18,04,31,8.30
2012,05,18,04,32,8.30
2012,05,18,04,33,8.30
2012,05,18,04,34,8.40
2012,05,18,04,35,8.40
2012,05,18,04,36,8.40
2012,05,18,04,37,8.40
2012,05,18,04,38,8.40
2012,05,18,04,39,8.40
2012,05,18,04,40,8.40
2012,05,18,04,41,8.40
2012,05,18,04,42,8.50
2012,05,18,04,43,8.50
2012,05,18,04,44,8.50
2012,05,18,04,45,8.50
2012,05,18,04,46,8.50
2012,05,18,04,47,8.50
2012,05,18,04,48,8.50
2012,05,18,04,49,8.60
2012,05,18,04,50,8.50
2012,05,18,04,51,8.60
2012,05,18,04,52,8.50
2012,05,18,04,53,8.50
2012,05,18,04,54,8.50
2012,05,18,04,55,8.50
2012,05,18,04,56,8.50
2012,05,18,04,57,8.50
2012,05,18,04,58,8.50
2012,05,18,04,59,8.50
2012,05,18,05,00,8.40
2012,05,18,05,01,8.40
2012,05,18,05,02,8.40
2012,05,18,05,03,8.40
2012,05,18,05,04,8.40
2012,05,18,05,05,8.40
2012,05,18,05,06,8.40
2012,05,18,05,07,8.40
2012,05,18,05,08,8.40
2012,05,18,05,09,8.40
2012,05,18,05,10,8.40
2012,05,18,05,11,8.40
2012,05,18,05,12,8.30
2012,05,18,05,13,8.30
2012,05,18,05,14,8.30
2012,05,18,05,15,8.30
2012,05,18,05,16,8.30
2012,05,18,05,17,8.20
2012,05,18,05,18,8.20
2012,05,18,05,19,8.20
2012,05,18,05,20,8.20
2012,05,18,05,21,8.10
2012,05,18,05,22,8.10
2012,05,18,05,23,8.10
2012,05,18,05,24,8.10
2012,05,18,05,25,8.10
2012,05,18,05,26,8.10
2012,05,18,05,27,8.10
2012,05,18,05,28,8.10
2012,05,18,05,29,8.00
2012,05,18,05,30,8.00
2012,05,18,05,31,8.00
2012,05,18,05,32,7.90
2012,05,18,05,33,7.90
2012,05,18,05,34,7.90
2012,05,18,05,35,7.90
2012,05,18,05,36,7.90
2012,05,18,05,37,7.80
2012,05,18,05,38,7.80
2012,05,18,05,39,7.80
2012,05,18,05,40,7.70
2012,05,18,05,41,7.70
2012,05,18,05,42,7.60
2012,05,18,05,43,7.60
2012,05,18,05,44,7.60
2012,05,18,05,45,7.50
2012,05,18,05,46,7.50
2012,05,18,05,47,7.60
2012,05,18,05,48,7.60
2012,05,18,05,49,7.60
2012,05,18,05,50,7.50
2012,05,18,05,51,7.50
2012,05,18,05,52,7.50
2012,05,18,05,53,7.40
2012,05,18,05,54,7.40
2012,05,18,05,55,7.40
2012,05,18,05,56,7.40
2012,05,18,05,57,7.40
2012,05,18,05,58,7.50
2012,05,18,05,59,7.50
2012,05,18,06,00,7.50
2012,05,18,06,01,7.50
2012,05,18,06,02,7.50
2012,05,18,06,03,7.50
2012,05,18,06,04,7.50
2012,05,18,06,05,7.60
2012,05,18,06,06,7.60
2012,05,18,06,07,7.60
2012,05,18,06,08,7.70
2012,05,18,06,09,7.70
2012,05,18,06,10,7.80
2012,05,18,06,11,7.80
2012,05,18,06,12,7.80
2012,05,18,06,13,7.80
2012,05,18,06,14,7.80
2012,05,18,06,15,7.70
2012,05,18,06,16,7.70
2012,05,18,06,17,7.70
2012,05,18,06,18,7.60
2012,05,18,06,19,7.60
2012,05,18,06,20,7.50
2012,05,18,06,21,7.50
2012,05,18,06,22,7.50
2012,05,18,06,23,7.40
2012,05,18,06,24,7.40
2012,05,18,06,25,7.40
2012,05,18,06,26,7.40
2012,05,18,06,27,7.30
2012,05,18,06,28,7.30
2012,05,18,06,29,7.30
2012,05,18,06,30,7.30
2012,05,18,06,31,7.30
2012,05,18,06,32,7.20
2012,05,18,06,33,7.20
2012,05,18,06,34,7.20
2012,05,18,06,35,7.20
2012,05,18,06,36,7.20
2012,05,18,06,37,7.20
2012,05,18,06,38,7.20
2012,05,18,06,39,7.20
2012,05,18,06,40,7.20
2012,05,18,06,41,7.20
2012,05,18,06,42,7.20
2012,05,18,06,43,7.20
2012,05,18,06,44,7.20
2012,05,18,06,45,7.20
2012,05,18,06,46,7.30
2012,05,18,06,47,7.30
2012,05,18,06,48,7.30
2012,05,18,06,49,7.30
2012,05,18,06,50,7.30
2012,05,18,06,51,7.30
2012,05,18,06,52,7.40
2012,05,18,06,53,7.40
2012,05,18,06,54,7.40
2012,05,18,06,55,7.40
2012,05,18,06,56,7.40
2012,05,18,06,57,7.40
2012,05,18,06,58,7.40
2012,05,18,06,59,7.40
2012,05,18,07,00,7.40
2012,05,18,07,01,7.30
2012,05,18,07,02,7.30
2012,05,18,07,03,7.30
2012,05,18,07,04,7.30
2012,05,18,07,05,7.30
2012,05,18,07,06,7.30
2012,05,18,07,07,7.30
2012,05,18,07,08,7.20
2012,05,18,07,09,7.20
2012,05,18,07,10,7.20
2012,05,18,07,11,7.30
2012,05,18,07,12,7.30
2012,05,18,07,13,7.30
2012,05,18,07,14,7.30
2012,05,18,07,15,7.30
2012,05,18,07,16,7.30
2012,05,18,07,17,7.40
2012,05,18,07,18,7.40
2012,05,18,07,19,7.50
2012,05,18,07,20,7.50
2012,05,18,07,21,7.60
2012,05,18,07,22,7.60
2012,05,18,07,23,7.70
2012,05,18,07,24,7.70
2012,05,18,07,25,7.80
2012,05,18,07,26,7.80
2012,05,18,07,27,7.80
2012,05,18,07,28,7.90
2012,05,18,07,29,7.90
2012,05,18,07,30,7.90
2012,05,18,07,31,8.00
2012,05,18,07,32,8.00
2012,05,18,07,33,8.00
2012,05,18,07,34,8.10
2012,05,18,07,35,8.10
2012,05,18,07,36,8.10
2012,05,18,07,37,8.10
2012,05,18,07,38,8.20
2012,05,18,07,39,8.20
2012,05,18,07,40,8.20
2012,05,18,07,41,8.20
2012,05,18,07,42,8.20
2012,05,18,07,43,8.20
2012,05,18,07,44,8.20
2012,05,18,07,45,8.20
2012,05,18,07,46,8.20
2012,05,18,07,47,8.20
2012,05,18,07,48,8.20
2012,05,18,07,49,8.20
2012,05,18,07,50,8.20
2012,05,18,07,51,8.20
2012,05,18,07,52,8.20
2012,05,18,07,53,8.30
2012,05,18,07,54,8.30
2012,05,18,07,55,8.30
2012,05,18,07,56,8.30
2012,05,18,07,57,8.40
2012,05,18,07,58,8.40
2012,05,18,07,59,8.40
2012,05,18,08,00,8.50
2012,05,18,08,01,8.60
2012,05,18,08,02,8.60
2012,05,18,08,03,8.70
2012,05,18,08,04,8.80
2012,05,18,08,05,8.80
2012,05,18,08,06,8.90
2012,05,18,08,07,8.90
2012,05,18,08,08,9.00
2012,05,18,08,09,9.00
2012,05,18,08,10,9.10
2012,05,18,08,11,9.10
2012,05,18,08,12,9.20
2012,05,18,08,13,9.20
2012,05,18,08,14,9.20
2012,05,18,08,15,9.30
2012,05,18,08,16,9.30
2012,05,18,08,17,9.30
2012,05,18,08,18,9.40
2012,05,18,08,19,9.40
2012,05,18,08,20,9.40
2012,05,18,08,21,9.50
2012,05,18,08,22,9.60
2012,05,18,08,23,9.60
2012,05,18,08,24,9.60
2012,05,18,08,25,9.60
2012,05,18,08,26,9.70
2012,05,18,08,27,9.70
2012,05,18,08,28,9.70
2012,05,18,08,29,9.80
2012,05,18,08,30,9.80
2012,05,18,08,31,9.80
2012,05,18,08,32,9.80
2012,05,18,08,33,9.90
2012,05,18,08,34,9.90
2012,05,18,08,35,9.90
2012,05,18,08,36,9.90
2012,05,18,08,37,9.90
2012,05,18,08,38,9.90
2012,05,18,08,39,9.90
2012,05,18,08,40,9.90
2012,05,18,08,41,9.90
2012,05,18,08,42,9.90
2012,05,18,08,43,9.90
2012,05,18,08,44,9.90
2012,05,18,08,45,10.00
2012,05,18,08,46,10.00
2012,05,18,08,47,10.10
2012,05,18,08,48,10.10
2012,05,18,08,49,10.10
2012,05,18,08,50,10.20
2012,05,18,08,51,10.20
2012,05,18,08,52,10.30
2012,05,18,08,53,10.30
2012,05,18,08,54,10.30
2012,05,18,08,55,10.30
2012,05,18,08,56,10.30
2012,05,18,08,57,10.30
2012,05,18,08,58,10.30
2012,05,18,08,59,10.30
2012,05,18,09,00,10.30
2012,05,18,09,01,10.30
2012,05,18,09,02,10.40
2012,05,18,09,03,10.40
2012,05,18,09,04,10.40
2012,05,18,09,05,10.50
2012,05,18,09,06,10.50
2012,05,18,09,07,10.60
2012,05,18,09,08,10.60
2012,05,18,09,09,10.60
2012,05,18,09,10,10.50
2012,05,18,09,11,10.50
2012,05,18,09,12,10.40
2012,05,18,09,13,10.40
2012,05,18,09,14,10.30
2012,05,18,09,15,10.30
2012,05,18,09,16,10.20
2012,05,18,09,17,10.20
2012,05,18,09,18,10.20
2012,05,18,09,19,10.20
2012,05,18,09,20,10.20
2012,05,18,09,21,10.30
2012,05,18,09,22,10.30
2012,05,18,09,23,10.30
2012,05,18,09,24,10.30
2012,05,18,09,25,10.20
2012,05,18,09,26,10.20
2012,05,18,09,27,10.20
2012,05,18,09,28,10.20
2012,05,18,09,29,10.20
2012,05,18,09,30,10.20
2012,05,18,09,31,10.10
2012,05,18,09,32,10.10
2012,05,18,09,33,10.10
2012,05,18,09,34,10.10
2012,05,18,09,35,10.20
2012,05,18,09,36,10.20
2012,05,18,09,37,10.20
2012,05,18,09,38,10.30
2012,05,18,09,39,10.40
2012,05,18,09,40,10.40
2012,05,18,09,41,10.50
2012,05,18,09,42,10.50
2012,05,18,09,43,10.50
2012,05,18,09,44,10.50
2012,05,18,09,45,10.40
2012,05,18,09,46,10.50
2012,05,18,09,47,10.50
2012,05,18,09,48,10.50
2012,05,18,09,49,10.50
2012,05,18,09,50,10.50
2012,05,18,09,51,10.50
2012,05,18,09,52,10.50
2012,05,18,09,53,10.50
2012,05,18,09,54,10.50
2012,05,18,09,55,10.50
2012,05,18,09,56,10.60
2012,05,18,09,57,10.60
2012,05,18,09,58,10.70
2012,05,18,09,59,10.70
2012,05,18,10,00,10.80
2012,05,18,10,01,10.80
2012,05,18,10,02,10.90
2012,05,18,10,03,10.90
2012,05,18,10,04,10.80
2012,05,18,10,05,10.80
2012,05,18,10,06,10.80
2012,05,18,10,07,10.80
2012,05,18,10,08,10.70
2012,05,18,10,09,10.70
2012,05,18,10,10,10.70
2012,05,18,10,11,10.80
2012,05,18,10,12,10.80
2012,05,18,10,13,10.80
2012,05,18,10,14,10.80
2012,05,18,10,15,10.80
2012,05,18,10,16,10.70
2012,05,18,10,17,10.70
2012,05,18,10,18,10.70
2012,05,18,10,19,10.80
2012,05,18,10,20,10.80
2012,05,18,10,21,10.80
2012,05,18,10,22,10.90
2012,05,18,10,23,10.90
2012,05,18,10,24,10.80
2012,05,18,10,25,10.80
2012,05,18,10,26,10.80
2012,05,18,10,27,10.80
2012,05,18,10,28,10.80
2012,05,18,10,29,10.80
2012,05,18,10,30,10.80
2012,05,18,10,31,10.90
2012,05,18,10,32,10.90
2012,05,18,10,33,10.80
2012,05,18,10,34,10.80
2012,05,18,10,35,10.80
2012,05,18,10,36,10.80
2012,05,18,10,37,10.90
2012,05,18,10,38,11.00
2012,05,18,10,39,11.00
2012,05,18,10,40,11.10
2012,05,18,10,41,11.20
2012,05,18,10,42,11.30
2012,05,18,10,43,11.30
2012,05,18,10,44,11.30
2012,05,18,10,45,11.20
2012,05,18,10,46,11.10
2012,05,18,10,47,11.10
2012,05,18,10,48,11.20
2012,05,18,10,49,11.30
2012,05,18,10,50,11.30
2012,05,18,10,51,11.40
2012,05,18,10,52,11.40
2012,05,18,10,53,11.40
2012,05,18,10,54,11.40
2012,05,18,10,55,11.40
2012,05,18,10,56,11.30
2012,05,18,10,57,11.30
2012,05,18,10,58,11.20
2012,05,18,10,59,11.30
2012,05,18,11,00,11.40
2012,05,18,11,01,11.40
2012,05,18,11,02,11.50
2012,05,18,11,03,11.50
2012,05,18,11,04,11.60
2012,05,18,11,05,11.80
2012,05,18,11,06,11.90
2012,05,18,11,07,12.10
2012,05,18,11,08,12.30
2012,05,18,11,09,12.40
2012,05,18,11,10,12.50
2012,05,18,11,11,12.50
2012,05,18,11,12,12.60
2012,05,18,11,13,12.60
2012,05,18,11,14,12.60
2012,05,18,11,15,12.60
2012,05,18,11,16,12.70
2012,05,18,11,17,12.70
2012,05,18,11,18,12.70
2012,05,18,11,19,12.50
2012,05,18,11,20,12.40
2012,05,18,11,21,12.40
2012,05,18,11,22,12.30
2012,05,18,11,23,12.10
2012,05,18,11,24,12.00
2012,05,18,11,25,11.90
2012,05,18,11,26,11.90
2012,05,18,11,27,11.90
2012,05,18,11,28,11.90
2012,05,18,11,29,12.10
2012,05,18,11,30,12.20
2012,05,18,11,31,12.30
2012,05,18,11,32,12.40
2012,05,18,11,33,12.40
2012,05,18,11,34,12.40
2012,05,18,11,35,12.50
2012,05,18,11,36,12.60
2012,05,18,11,37,12.70
2012,05,18,11,38,12.70
2012,05,18,11,39,12.60
2012,05,18,11,40,12.70
2012,05,18,11,41,12.80
2012,05,18,11,42,12.80
2012,05,18,11,43,12.80
2012,05,18,11,44,12.80
2012,05,18,11,45,12.80
2012,05,18,11,46,12.80
2012,05,18,11,47,12.80
2012,05,18,11,48,12.90
2012,05,18,11,49,13.00
2012,05,18,11,50,13.00
2012,05,18,11,51,13.00
2012,05,18,11,52,12.90
2012,05,18,11,53,12.90
2012,05,18,11,54,12.90
2012,05,18,11,55,12.90
2012,05,18,11,56,12.90
2012,05,18,11,57,12.90
2012,05,18,11,58,12.90
2012,05,18,11,59,13.00
2012,05,18,12,00,13.00
2012,05,18,12,01,13.00
2012,05,18,12,02,13.00
2012,05,18,12,03,13.10
2012,05,18,12,04,13.20
2012,05,18,12,05,13.20
2012,05,18,12,06,13.10
2012,05,18,12,07,13.00
2012,05,18,12,08,12.90
2012,05,18,12,09,12.80
2012,05,18,12,10,12.80
2012,05,18,12,11,12.70
2012,05,18,12,12,12.60
2012,05,18,12,13,12.60
2012,05,18,12,14,12.60
2012,05,18,12,15,12.60
2012,05,18,12,16,12.50
2012,05,18,12,17,12.50
2012,05,18,12,18,12.60
2012,05,18,12,19,12.70
2012,05,18,12,20,12.80
2012,05,18,12,21,12.80
2012,05,18,12,22,12.90
2012,05,18,12,23,12.90
2012,05,18,12,24,12.90
2012,05,18,12,25,12.90
2012,05,18,12,26,12.90
2012,05,18,12,27,12.80
2012,05,18,12,28,12.90
2012,05,18,12,29,12.80
2012,05,18,12,30,12.70
2012,05,18,12,31,12.70
2012,05,18,12,32,12.70
2012,05,18,12,33,12.70
2012,05,18,12,34,12.70
2012,05,18,12,35,12.70
2012,05,18,12,36,12.80
2012,05,18,12,37,12.80
2012,05,18,12,38,12.70
2012,05,18,12,39,12.70
2012,05,18,12,40,12.70
2012,05,18,12,41,12.70
2012,05,18,12,42,12.60
2012,05,18,12,43,12.60
2012,05,18,12,44,12.50
2012,05,18,12,45,12.40
2012,05,18,12,46,12.30
2012,05,18,12,47,12.30
2012,05,18,12,48,12.30
2012,05,18,12,49,12.30
2012,05,18,12,50,12.20
2012,05,18,12,51,12.30
2012,05,18,12,52,12.30
2012,05,18,12,53,12.30
2012,05,18,12,54,12.30
2012,05,18,12,55,12.30
2012,05,18,12,56,12.30
2012,05,18,12,57,12.30
2012,05,18,12,58,12.20
2012,05,18,12,59,12.20
2012,05,18,13,00,12.20
2012,05,18,13,01,12.20
2012,05,18,13,02,12.30
2012,05,18,13,03,12.30
2012,05,18,13,04,12.40
2012,05,18,13,05,12.50
2012,05,18,13,06,12.60
2012,05,18,13,07,12.80
2012,05,18,13,08,12.90
2012,05,18,13,09,12.90
2012,05,18,13,10,13.00
2012,05,18,13,11,13.10
2012,05,18,13,12,13.20
2012,05,18,13,13,13.20
2012,05,18,13,14,13.20
2012,05,18,13,15,13.20
2012,05,18,13,16,13.20
2012,05,18,13,17,13.20
2012,05,18,13,18,13.10
2012,05,18,13,19,13.00
2012,05,18,13,20,12.90
2012,05,18,13,21,12.90
2012,05,18,13,22,12.90
2012,05,18,13,23,12.90
2012,05,18,13,24,12.90
2012,05,18,13,25,12.90
2012,05,18,13,26,12.90
2012,05,18,13,27,12.90
2012,05,18,13,28,12.90
2012,05,18,13,30,12.90
2012,05,18,13,31,12.80
2012,05,18,13,32,12.90
2012,05,18,13,33,12.90
2012,05,18,13,34,12.90
2012,05,18,13,35,12.90
2012,05,18,13,36,12.90
2012,05,18,13,37,13.00
2012,05,18,13,38,13.10
2012,05,18,13,39,13.20
2012,05,18,13,40,13.30
2012,05,18,13,41,13.30
2012,05,18,13,42,13.20
2012,05,18,13,43,13.20
2012,05,18,13,44,13.10
2012,05,18,13,45,13.10
2012,05,18,13,46,13.10
2012,05,18,13,47,13.20
2012,05,18,13,48,13.20
2012,05,18,13,49,13.20
2012,05,18,13,50,13.20
2012,05,18,13,51,13.30
2012,05,18,13,52,13.30
2012,05,18,13,53,13.30
2012,05,18,13,54,13.30
2012,05,18,13,55,13.30
2012,05,18,13,56,13.30
2012,05,18,13,57,13.20
2012,05,18,13,58,13.20
2012,05,18,13,59,13.20
2012,05,18,14,00,13.20
2012,05,18,14,01,13.30
2012,05,18,14,02,13.40
2012,05,18,14,03,13.50
2012,05,18,14,04,13.60
2012,05,18,14,05,13.70
2012,05,18,14,06,13.70
2012,05,18,14,07,13.80
2012,05,18,14,08,13.90
2012,05,18,14,09,13.90
2012,05,18,14,10,13.90
2012,05,18,14,11,13.80
2012,05,18,14,12,13.80
2012,05,18,14,13,13.80
2012,05,18,14,14,13.80
2012,05,18,14,15,13.80
2012,05,18,14,16,13.90
2012,05,18,14,17,13.90
2012,05,18,14,18,13.80
2012,05,18,14,19,13.80
2012,05,18,14,20,13.80
2012,05,18,14,21,13.90
2012,05,18,14,22,14.00
2012,05,18,14,23,14.00
2012,05,18,14,24,13.90
2012,05,18,14,25,13.80
2012,05,18,14,26,13.80
2012,05,18,14,27,13.80
2012,05,18,14,28,13.80
2012,05,18,14,29,13.90
2012,05,18,14,30,13.90
2012,05,18,14,31,14.00
2012,05,18,14,32,14.10
2012,05,18,14,33,14.20
2012,05,18,14,34,14.20
2012,05,18,14,35,14.30
2012,05,18,14,36,14.30
2012,05,18,14,37,14.40
2012,05,18,14,38,14.30
2012,05,18,14,39,14.30
2012,05,18,14,40,14.30
2012,05,18,14,41,14.30
2012,05,18,14,42,14.30
2012,05,18,14,43,14.20
2012,05,18,14,44,14.20
2012,05,18,14,45,14.20
2012,05,18,14,46,14.30
2012,05,18,14,47,14.40
2012,05,18,14,48,14.40
2012,05,18,14,49,14.50
2012,05,18,14,50,14.40
2012,05,18,14,51,14.50
2012,05,18,14,52,14.50
2012,05,18,14,53,14.50
2012,05,18,14,54,14.50
2012,05,18,14,55,14.50
2012,05,18,14,56,14.40
2012,05,18,14,57,14.30
2012,05,18,14,58,14.30
2012,05,18,14,59,14.30
2012,05,18,15,00,14.30
2012,05,18,15,01,14.40
2012,05,18,15,02,14.40
2012,05,18,15,03,14.30
2012,05,18,15,04,14.30
2012,05,18,15,05,14.30
2012,05,18,15,06,14.20
2012,05,18,15,07,14.20
2012,05,18,15,08,14.20
2012,05,18,15,09,14.20
2012,05,18,15,10,14.20
2012,05,18,15,11,14.10
2012,05,18,15,12,14.10
2012,05,18,15,13,14.10
2012,05,18,15,14,14.10
2012,05,18,15,15,14.10
2012,05,18,15,16,14.20
2012,05,18,15,17,14.30
2012,05,18,15,18,14.30
2012,05,18,15,19,14.30
2012,05,18,15,20,14.40
2012,05,18,15,21,14.40
2012,05,18,15,22,14.40
2012,05,18,15,23,14.50
2012,05,18,15,24,14.50
2012,05,18,15,25,14.60
2012,05,18,15,26,14.50
2012,05,18,15,27,14.50
2012,05,18,15,28,14.60
2012,05,18,15,29,14.50
2012,05,18,15,30,14.50
2012,05,18,15,31,14.40
2012,05,18,15,32,14.30
2012,05,18,15,33,14.30
2012,05,18,15,34,14.30
2012,05,18,15,35,14.30
2012,05,18,15,36,14.40
2012,05,18,15,37,14.40
2012,05,18,15,38,14.30
2012,05,18,15,39,14.30
2012,05,18,15,40,14.30
2012,05,18,15,41,14.30
2012,05,18,15,42,14.40
2012,05,18,15,43,14.40
2012,05,18,15,44,14.50
2012,05,18,15,45,14.50
2012,05,18,15,46,14.50
2012,05,18,15,47,14.40
2012,05,18,15,48,14.40
2012,05,18,15,49,14.40
2012,05,18,15,50,14.30
2012,05,18,15,51,14.30
2012,05,18,15,52,14.30
2012,05,18,15,53,14.30
2012,05,18,15,54,14.40
2012,05,18,15,55,14.40
2012,05,18,15,56,14.50
2012,05,18,15,57,14.50
2012,05,18,15,58,14.50
2012,05,18,15,59,14.50
2012,05,18,16,00,14.40
2012,05,18,16,01,14.40
2012,05,18,16,02,14.50
2012,05,18,16,03,14.50
2012,05,18,16,04,14.50
2012,05,18,16,05,14.60
2012,05,18,16,06,14.60
2012,05,18,16,07,14.60
2012,05,18,16,08,14.70
2012,05,18,16,09,14.60
2012,05,18,16,10,14.50
2012,05,18,16,11,14.40
2012,05,18,16,12,14.40
2012,05,18,16,13,14.30
2012,05,18,16,14,14.30
2012,05,18,16,15,14.30
2012,05,18,16,16,14.20
2012,05,18,16,17,14.20
2012,05,18,16,18,14.20
2012,05,18,16,19,14.30
2012,05,18,16,20,14.30
2012,05,18,16,21,14.30
2012,05,18,16,22,14.30
2012,05,18,16,23,14.40
2012,05,18,16,24,14.40
2012,05,18,16,25,14.50
2012,05,18,16,26,14.50
2012,05,18,16,27,14.50
2012,05,18,16,28,14.50
2012,05,18,16,29,14.40
2012,05,18,16,30,14.30
2012,05,18,16,31,14.20
2012,05,18,16,32,14.20
2012,05,18,16,33,14.20
2012,05,18,16,34,14.20
2012,05,18,16,35,14.20
2012,05,18,16,36,14.30
2012,05,18,16,37,14.30
2012,05,18,16,38,14.30
2012,05,18,16,39,14.30
2012,05,18,16,40,14.20
2012,05,18,16,41,14.20
2012,05,18,16,42,14.20
2012,05,18,16,43,14.20
2012,05,18,16,44,14.30
2012,05,18,16,45,14.30
2012,05,18,16,46,14.30
2012,05,18,16,47,14.30
2012,05,18,16,48,14.30
2012,05,18,16,49,14.20
2012,05,18,16,50,14.20
2012,05,18,16,51,14.20
2012,05,18,16,52,14.20
2012,05,18,16,53,14.10
2012,05,18,16,54,14.10
2012,05,18,16,55,14.10
2012,05,18,16,56,14.20
2012,05,18,16,57,14.20
2012,05,18,16,58,14.30
2012,05,18,16,59,14.30
2012,05,18,17,00,14.30
2012,05,18,17,01,14.30
2012,05,18,17,02,14.20
2012,05,18,17,03,14.20
2012,05,18,17,04,14.20
2012,05,18,17,05,14.20
2012,05,18,17,06,14.20
2012,05,18,17,07,14.20
2012,05,18,17,08,14.20
2012,05,18,17,09,14.20
2012,05,18,17,10,14.10
2012,05,18,17,11,14.10
2012,05,18,17,12,14.10
2012,05,18,17,13,14.10
2012,05,18,17,14,14.10
2012,05,18,17,15,14.00
2012,05,18,17,16,13.90
2012,05,18,17,17,13.90
2012,05,18,17,18,13.90
2012,05,18,17,19,13.90
2012,05,18,17,20,13.90
2012,05,18,17,21,13.90
2012,05,18,17,22,13.90
2012,05,18,17,23,13.90
2012,05,18,17,24,13.90
2012,05,18,17,25,13.90
2012,05,18,17,26,13.90
2012,05,18,17,27,13.90
2012,05,18,17,28,13.90
2012,05,18,17,29,13.80
2012,05,18,17,30,13.80
2012,05,18,17,31,13.80
2012,05,18,17,32,13.70
2012,05,18,17,33,13.70
2012,05,18,17,34,13.70
2012,05,18,17,35,13.80
2012,05,18,17,36,13.80
2012,05,18,17,37,13.80
2012,05,18,17,38,13.80
2012,05,18,17,39,13.80
2012,05,18,17,40,13.80